Time,TemperatureF,DewpointF,PressureIn,WindDirection,WindDirectionDegrees,WindSpeedMPH,WindSpeedGustMPH,Humidity,HourlyPrecipIn,Conditions,Clouds,dailyrainin,SoftwareType,DateUTC
2013-08-05 00:00:00,58.4,54.5,30.13,East,86,1.0,2.0,87,0.00,,,0.00,Wunderground v.1.15,2013-08-05 04:00:00,
2013-08-05 00:01:00,58.3,54.4,30.13,East,86,1.0,2.0,87,0.00,,,0.00,Wunderground v.1.15,2013-08-05 04:01:00,
2013-08-05 00:06:00,58.1,54.6,30.13,East,86,1.0,2.0,88,0.00,,,0.00,Wunderground v.1.15,2013-08-05 04:06:00,
2013-08-05 00:11:00,57.8,54.3,30.13,East,86,2.0,3.0,88,0.00,,,0.00,Wunderground v.1.15,2013-08-05 04:11:00,
2013-08-05 00:16:00,57.6,54.4,30.13,East,86,2.0,3.0,89,0.00,,,0.00,Wunderground v.1.15,2013-08-05 04:16:00,
2013-08-05 00:21:00,57.6,54.4,30.14,East,86,2.0,2.0,89,0.00,,,0.00,Wunderground v.1.15,2013-08-05 04:21:00,
2013-08-05 00:26:00,57.5,54.3,30.14,East,86,2.0,3.0,89,0.00,,,0.00,Wunderground v.1.15,2013-08-05 04:26:00,
2013-08-05 00:31:00,57.5,54.3,30.14,East,86,2.0,2.0,89,0.00,,,0.00,Wunderground v.1.15,2013-08-05 04:31:00,
2013-08-05 00:36:00,57.4,54.2,30.14,East,86,2.0,3.0,89,0.00,,,0.00,Wunderground v.1.15,2013-08-05 04:36:00,
2013-08-05 00:41:00,57.2,54.3,30.14,East,86,3.0,3.0,90,0.00,,,0.00,Wunderground v.1.15,2013-08-05 04:41:00,
2013-08-05 00:46:00,57.0,54.1,30.14,East,86,3.0,3.0,90,0.00,,,0.00,Wunderground v.1.15,2013-08-05 04:46:00,
2013-08-05 00:51:00,56.8,53.9,30.14,East,95,2.0,4.0,90,0.00,,,0.00,Wunderground v.1.15,2013-08-05 04:51:00,
2013-08-05 00:57:00,56.8,54.2,30.14,East,96,2.0,4.0,91,0.00,,,0.00,Wunderground v.1.15,2013-08-05 04:57:00,
2013-08-05 01:01:00,56.8,54.2,30.14,East,96,3.0,3.0,91,0.00,,,0.00,Wunderground v.1.15,2013-08-05 05:01:00,
2013-08-05 01:06:00,56.8,54.2,30.14,East,97,2.0,4.0,91,0.00,,,0.00,Wunderground v.1.15,2013-08-05 05:06:00,
2013-08-05 01:11:00,56.8,54.2,30.14,East,97,2.0,3.0,91,0.00,,,0.00,Wunderground v.1.15,2013-08-05 05:11:00,
2013-08-05 01:17:00,56.8,54.2,30.14,East,98,3.0,4.0,91,0.00,,,0.00,Wunderground v.1.15,2013-08-05 05:17:00,
2013-08-05 01:21:00,56.5,53.9,30.14,East,101,3.0,3.0,91,0.00,,,0.00,Wunderground v.1.15,2013-08-05 05:21:00,
2013-08-05 01:27:00,56.3,53.7,30.14,East,101,3.0,4.0,91,0.00,,,0.00,Wunderground v.1.15,2013-08-05 05:27:00,
2013-08-05 01:32:00,56.1,53.5,30.14,ESE,105,4.0,4.0,91,0.00,,,0.00,Wunderground v.1.15,2013-08-05 05:32:00,
2013-08-05 01:37:00,56.0,53.7,30.14,ESE,111,4.0,4.0,92,0.00,,,0.00,Wunderground v.1.15,2013-08-05 05:37:00,
2013-08-05 01:42:00,55.9,53.6,30.13,ESE,112,4.0,4.0,92,0.00,,,0.00,Wunderground v.1.15,2013-08-05 05:42:00,
2013-08-05 01:47:00,55.8,53.5,30.13,ESE,112,3.0,4.0,92,0.00,,,0.00,Wunderground v.1.15,2013-08-05 05:47:00,
2013-08-05 01:51:00,55.8,53.5,30.13,ESE,112,3.0,4.0,92,0.00,,,0.00,Wunderground v.1.15,2013-08-05 05:51:00,
2013-08-05 01:57:00,55.7,53.4,30.13,ESE,112,3.0,4.0,92,0.00,,,0.00,Wunderground v.1.15,2013-08-05 05:57:00,
2013-08-05 02:02:00,55.7,53.4,30.13,ESE,112,4.0,4.0,92,0.00,,,0.00,Wunderground v.1.15,2013-08-05 06:02:00,
2013-08-05 02:07:00,55.4,53.1,30.13,ESE,112,3.0,4.0,92,0.00,,,0.00,Wunderground v.1.15,2013-08-05 06:07:00,
2013-08-05 02:12:00,55.1,53.1,30.13,ESE,112,4.0,4.0,93,0.00,,,0.00,Wunderground v.1.15,2013-08-05 06:12:00,
2013-08-05 02:17:00,55.0,53.0,30.13,ESE,112,3.0,4.0,93,0.00,,,0.00,Wunderground v.1.15,2013-08-05 06:17:00,
2013-08-05 02:22:00,54.8,53.1,30.13,ESE,113,3.0,4.0,94,0.00,,,0.00,Wunderground v.1.15,2013-08-05 06:22:00,
2013-08-05 02:27:00,54.8,53.1,30.12,ESE,114,4.0,4.0,94,0.00,,,0.00,Wunderground v.1.15,2013-08-05 06:27:00,
2013-08-05 02:32:00,54.8,53.1,30.13,ESE,114,3.0,4.0,94,0.00,,,0.00,Wunderground v.1.15,2013-08-05 06:32:00,
2013-08-05 02:37:00,54.8,53.1,30.13,ESE,114,3.0,4.0,94,0.00,,,0.00,Wunderground v.1.15,2013-08-05 06:37:00,
2013-08-05 02:42:00,54.9,53.2,30.13,ESE,114,4.0,4.0,94,0.00,,,0.00,Wunderground v.1.15,2013-08-05 06:42:00,
2013-08-05 02:47:00,54.8,53.1,30.13,ESE,116,4.0,4.0,94,0.00,,,0.00,Wunderground v.1.15,2013-08-05 06:47:00,
2013-08-05 02:52:00,54.8,53.1,30.13,ESE,116,4.0,4.0,94,0.00,,,0.00,Wunderground v.1.15,2013-08-05 06:52:00,
2013-08-05 02:57:00,54.8,53.1,30.12,ESE,117,4.0,5.0,94,0.00,,,0.00,Wunderground v.1.15,2013-08-05 06:57:00,
2013-08-05 03:02:00,54.7,52.7,30.12,ESE,117,3.0,4.0,93,0.00,,,0.00,Wunderground v.1.15,2013-08-05 07:02:00,
2013-08-05 03:07:00,54.6,52.6,30.12,ESE,117,3.0,4.0,93,0.00,,,0.00,Wunderground v.1.15,2013-08-05 07:07:00,
2013-08-05 03:12:00,54.4,52.7,30.12,ESE,117,3.0,4.0,94,0.00,,,0.00,Wunderground v.1.15,2013-08-05 07:12:00,
2013-08-05 03:17:00,54.2,52.5,30.12,ESE,117,3.0,4.0,94,0.00,,,0.00,Wunderground v.1.15,2013-08-05 07:17:00,
2013-08-05 03:22:00,54.1,52.4,30.11,ESE,117,3.0,3.0,94,0.00,,,0.00,Wunderground v.1.15,2013-08-05 07:22:00,
2013-08-05 03:27:00,54.1,52.4,30.11,ESE,117,3.0,4.0,94,0.00,,,0.00,Wunderground v.1.15,2013-08-05 07:27:00,
2013-08-05 03:32:00,54.0,52.3,30.11,ESE,117,3.0,4.0,94,0.00,,,0.00,Wunderground v.1.15,2013-08-05 07:32:00,
2013-08-05 03:37:00,53.9,52.5,30.11,ESE,117,2.0,4.0,95,0.00,,,0.00,Wunderground v.1.15,2013-08-05 07:37:00,
2013-08-05 03:42:00,53.8,52.4,30.11,ESE,117,2.0,4.0,95,0.00,,,0.00,Wunderground v.1.15,2013-08-05 07:42:00,
2013-08-05 03:47:00,53.7,52.3,30.11,ESE,117,4.0,4.0,95,0.00,,,0.00,Wunderground v.1.15,2013-08-05 07:47:00,
2013-08-05 03:52:00,53.7,52.3,30.11,ESE,117,2.0,3.0,95,0.00,,,0.00,Wunderground v.1.15,2013-08-05 07:52:00,
2013-08-05 03:57:00,53.8,52.4,30.11,ESE,117,2.0,3.0,95,0.00,,,0.00,Wunderground v.1.15,2013-08-05 07:57:00,
2013-08-05 04:02:00,53.8,52.4,30.10,ESE,117,2.0,3.0,95,0.00,,,0.00,Wunderground v.1.15,2013-08-05 08:02:00,
2013-08-05 04:07:00,53.8,52.4,30.10,ESE,117,3.0,3.0,95,0.00,,,0.00,Wunderground v.1.15,2013-08-05 08:07:00,
2013-08-05 04:12:00,53.8,52.4,30.10,ESE,117,3.0,3.0,95,0.00,,,0.00,Wunderground v.1.15,2013-08-05 08:12:00,
2013-08-05 04:17:00,53.8,52.4,30.10,ESE,117,2.0,3.0,95,0.00,,,0.00,Wunderground v.1.15,2013-08-05 08:17:00,
2013-08-05 04:22:00,53.7,52.3,30.10,ESE,117,3.0,3.0,95,0.00,,,0.00,Wunderground v.1.15,2013-08-05 08:22:00,
2013-08-05 04:27:00,53.6,52.2,30.10,ESE,117,2.0,3.0,95,0.00,,,0.00,Wunderground v.1.15,2013-08-05 08:27:00,
2013-08-05 04:32:00,53.7,52.3,30.10,ESE,117,2.0,3.0,95,0.00,,,0.00,Wunderground v.1.15,2013-08-05 08:32:00,
2013-08-05 04:37:00,53.6,51.9,30.10,ESE,117,3.0,3.0,94,0.00,,,0.00,Wunderground v.1.15,2013-08-05 08:37:00,
2013-08-05 04:42:00,53.3,51.9,30.10,ESE,117,2.0,3.0,95,0.00,,,0.00,Wunderground v.1.15,2013-08-05 08:42:00,
2013-08-05 04:48:00,53.3,51.9,30.09,ESE,117,3.0,3.0,95,0.00,,,0.00,Wunderground v.1.15,2013-08-05 08:48:00,
2013-08-05 04:53:00,53.2,51.8,30.10,ESE,117,2.0,3.0,95,0.00,,,0.00,Wunderground v.1.15,2013-08-05 08:53:00,
2013-08-05 04:58:00,53.3,52.2,30.10,ESE,117,2.0,3.0,96,0.00,,,0.00,Wunderground v.1.15,2013-08-05 08:58:00,
2013-08-05 05:03:00,53.3,52.2,30.10,ESE,117,3.0,4.0,96,0.00,,,0.00,Wunderground v.1.15,2013-08-05 09:03:00,
2013-08-05 05:08:00,53.2,51.8,30.10,ESE,117,3.0,4.0,95,0.00,,,0.00,Wunderground v.1.15,2013-08-05 09:08:00,
2013-08-05 05:13:00,53.2,51.8,30.10,ESE,117,3.0,3.0,95,0.00,,,0.00,Wunderground v.1.15,2013-08-05 09:13:00,
2013-08-05 05:18:00,53.2,51.8,30.10,ESE,117,2.0,3.0,95,0.00,,,0.00,Wunderground v.1.15,2013-08-05 09:18:00,
2013-08-05 05:23:00,53.3,51.9,30.10,ESE,117,2.0,4.0,95,0.00,,,0.00,Wunderground v.1.15,2013-08-05 09:23:00,
2013-08-05 05:28:00,53.4,52.0,30.10,ESE,117,2.0,4.0,95,0.00,,,0.00,Wunderground v.1.15,2013-08-05 09:28:00,
2013-08-05 05:33:00,53.4,52.0,30.10,ESE,117,3.0,4.0,95,0.00,,,0.00,Wunderground v.1.15,2013-08-05 09:33:00,
2013-08-05 05:39:00,53.4,52.0,30.10,ESE,117,2.0,3.0,95,0.00,,,0.00,Wunderground v.1.15,2013-08-05 09:39:00,
2013-08-05 05:44:00,53.4,52.0,30.09,ESE,117,3.0,4.0,95,0.00,,,0.00,Wunderground v.1.15,2013-08-05 09:44:00,
2013-08-05 05:49:00,53.5,52.1,30.09,ESE,117,2.0,3.0,95,0.00,,,0.00,Wunderground v.1.15,2013-08-05 09:49:00,
2013-08-05 05:54:00,53.4,52.0,30.09,ESE,117,3.0,3.0,95,0.00,,,0.00,Wunderground v.1.15,2013-08-05 09:54:00,
2013-08-05 05:59:00,53.4,51.7,30.09,ESE,117,3.0,3.0,94,0.00,,,0.00,Wunderground v.1.15,2013-08-05 09:59:00,
2013-08-05 06:04:00,53.4,51.7,30.10,ESE,117,3.0,3.0,94,0.00,,,0.00,Wunderground v.1.15,2013-08-05 10:04:00,
2013-08-05 06:09:00,53.5,51.8,30.09,ESE,117,3.0,3.0,94,0.00,,,0.00,Wunderground v.1.15,2013-08-05 10:09:00,
2013-08-05 06:14:00,53.5,51.8,30.09,ESE,117,3.0,4.0,94,0.00,,,0.00,Wunderground v.1.15,2013-08-05 10:14:00,
2013-08-05 06:19:00,53.5,51.8,30.09,ESE,117,2.0,3.0,94,0.00,,,0.00,Wunderground v.1.15,2013-08-05 10:19:00,
2013-08-05 06:24:00,53.4,51.7,30.09,ESE,117,4.0,4.0,94,0.00,,,0.00,Wunderground v.1.15,2013-08-05 10:24:00,
2013-08-05 06:29:00,53.4,51.7,30.09,ESE,117,2.0,4.0,94,0.00,,,0.00,Wunderground v.1.15,2013-08-05 10:29:00,
2013-08-05 06:35:00,53.4,51.7,30.09,ESE,117,2.0,4.0,94,0.00,,,0.00,Wunderground v.1.15,2013-08-05 10:35:00,
2013-08-05 06:40:00,53.4,51.7,30.09,ESE,117,3.0,3.0,94,0.00,,,0.00,Wunderground v.1.15,2013-08-05 10:40:00,
2013-08-05 06:45:00,53.4,51.7,30.10,ESE,117,2.0,4.0,94,0.00,,,0.00,Wunderground v.1.15,2013-08-05 10:45:00,
2013-08-05 06:50:00,53.3,51.6,30.10,ESE,117,3.0,3.0,94,0.00,,,0.00,Wunderground v.1.15,2013-08-05 10:50:00,
2013-08-05 06:55:00,53.3,51.6,30.10,ESE,117,3.0,4.0,94,0.00,,,0.00,Wunderground v.1.15,2013-08-05 10:55:00,
2013-08-05 07:00:00,53.4,51.7,30.10,ESE,117,3.0,4.0,94,0.00,,,0.00,Wunderground v.1.15,2013-08-05 11:00:00,
2013-08-05 07:05:00,53.3,51.6,30.10,ESE,117,2.0,4.0,94,0.00,,,0.00,Wunderground v.1.15,2013-08-05 11:05:00,
2013-08-05 07:11:00,53.5,51.8,30.10,ESE,117,3.0,4.0,94,0.00,,,0.00,Wunderground v.1.15,2013-08-05 11:11:00,
2013-08-05 07:15:00,53.7,52.0,30.10,ESE,117,3.0,4.0,94,0.00,,,0.00,Wunderground v.1.15,2013-08-05 11:15:00,
2013-08-05 07:21:00,53.9,51.9,30.10,ESE,117,2.0,4.0,93,0.00,,,0.00,Wunderground v.1.15,2013-08-05 11:21:00,
2013-08-05 07:26:00,54.0,52.0,30.10,ESE,117,3.0,4.0,93,0.00,,,0.00,Wunderground v.1.15,2013-08-05 11:26:00,
2013-08-05 07:31:00,54.2,52.2,30.09,ESE,117,3.0,4.0,93,0.00,,,0.00,Wunderground v.1.15,2013-08-05 11:31:00,
2013-08-05 07:36:00,54.4,52.4,30.09,ESE,117,2.0,4.0,93,0.00,,,0.00,Wunderground v.1.15,2013-08-05 11:36:00,
2013-08-05 07:41:00,54.7,52.4,30.09,ESE,117,2.0,3.0,92,0.00,,,0.00,Wunderground v.1.15,2013-08-05 11:41:00,
2013-08-05 07:46:00,55.0,52.7,30.09,ESE,117,3.0,3.0,92,0.00,,,0.00,Wunderground v.1.15,2013-08-05 11:46:00,
2013-08-05 07:51:00,55.4,52.8,30.09,ESE,117,2.0,4.0,91,0.00,,,0.00,Wunderground v.1.15,2013-08-05 11:51:00,
2013-08-05 07:56:00,55.7,52.8,30.09,ESE,117,2.0,4.0,90,0.00,,,0.00,Wunderground v.1.15,2013-08-05 11:56:00,
2013-08-05 08:02:00,55.9,52.7,30.09,ESE,117,2.0,3.0,89,0.00,,,0.00,Wunderground v.1.15,2013-08-05 12:02:00,
2013-08-05 08:06:00,56.1,52.9,30.09,ESE,117,1.0,3.0,89,0.00,,,0.00,Wunderground v.1.15,2013-08-05 12:06:00,
2013-08-05 08:12:00,56.4,52.9,30.10,ESE,117,3.0,3.0,88,0.00,,,0.00,Wunderground v.1.15,2013-08-05 12:12:00,
2013-08-05 08:17:00,56.7,53.2,30.09,ESE,117,2.0,3.0,88,0.00,,,0.00,Wunderground v.1.15,2013-08-05 12:17:00,
2013-08-05 08:22:00,56.8,53.0,30.09,ESE,117,3.0,3.0,87,0.00,,,0.00,Wunderground v.1.15,2013-08-05 12:22:00,
2013-08-05 08:27:00,57.0,53.2,30.09,ESE,117,2.0,3.0,87,0.00,,,0.00,Wunderground v.1.15,2013-08-05 12:27:00,
2013-08-05 08:32:00,57.1,53.3,30.09,ESE,117,2.0,3.0,87,0.00,,,0.00,Wunderground v.1.15,2013-08-05 12:32:00,
2013-08-05 08:37:00,57.3,53.1,30.09,ESE,117,2.0,3.0,86,0.00,,,0.00,Wunderground v.1.15,2013-08-05 12:37:00,
2013-08-05 08:42:00,57.7,53.5,30.09,ESE,117,1.0,3.0,86,0.00,,,0.00,Wunderground v.1.15,2013-08-05 12:42:00,
2013-08-05 08:47:00,58.0,53.5,30.10,ESE,117,2.0,4.0,85,0.00,,,0.00,Wunderground v.1.15,2013-08-05 12:47:00,
2013-08-05 08:52:00,58.5,54.0,30.10,ESE,117,2.0,3.0,85,0.00,,,0.00,Wunderground v.1.15,2013-08-05 12:52:00,
2013-08-05 08:57:00,58.9,54.1,30.10,ESE,117,1.0,3.0,84,0.00,,,0.00,Wunderground v.1.15,2013-08-05 12:57:00,
2013-08-05 09:03:00,59.4,54.2,30.10,ESE,117,2.0,3.0,83,0.00,,,0.00,Wunderground v.1.15,2013-08-05 13:03:00,
2013-08-05 09:08:00,59.8,54.6,30.09,ESE,117,2.0,4.0,83,0.00,,,0.00,Wunderground v.1.15,2013-08-05 13:08:00,
2013-08-05 09:13:00,60.6,55.7,30.09,ESE,115,1.0,3.0,84,0.00,,,0.00,Wunderground v.1.15,2013-08-05 13:13:00,
2013-08-05 09:17:00,61.4,55.2,30.10,ESE,115,1.0,3.0,80,0.00,,,0.00,Wunderground v.1.15,2013-08-05 13:17:00,
2013-08-05 09:23:00,61.7,54.8,30.10,ESE,115,2.0,3.0,78,0.00,,,0.00,Wunderground v.1.15,2013-08-05 13:23:00,
2013-08-05 09:28:00,61.8,55.2,30.10,ESE,115,2.0,3.0,79,0.00,,,0.00,Wunderground v.1.15,2013-08-05 13:28:00,
2013-08-05 09:33:00,61.9,54.6,30.10,ESE,115,3.0,3.0,77,0.00,,,0.00,Wunderground v.1.15,2013-08-05 13:33:00,
2013-08-05 09:38:00,62.2,54.9,30.10,ESE,115,1.0,3.0,77,0.00,,,0.00,Wunderground v.1.15,2013-08-05 13:38:00,
2013-08-05 09:43:00,62.9,55.2,30.10,ESE,115,0.0,2.0,76,0.00,,,0.00,Wunderground v.1.15,2013-08-05 13:43:00,
2013-08-05 09:48:00,63.4,55.7,30.09,ESE,115,1.0,2.0,76,0.00,,,0.00,Wunderground v.1.15,2013-08-05 13:48:00,
2013-08-05 09:53:00,63.5,54.3,30.09,SE,129,1.0,3.0,72,0.00,,,0.00,Wunderground v.1.15,2013-08-05 13:53:00,
2013-08-05 09:58:00,63.5,53.1,30.10,SE,128,2.0,2.0,69,0.00,,,0.00,Wunderground v.1.15,2013-08-05 13:58:00,
2013-08-05 10:03:00,63.5,54.3,30.09,SE,127,2.0,3.0,72,0.00,,,0.00,Wunderground v.1.15,2013-08-05 14:03:00,
2013-08-05 10:09:00,63.6,53.6,30.09,SE,127,1.0,2.0,70,0.00,,,0.00,Wunderground v.1.15,2013-08-05 14:09:00,
2013-08-05 10:13:00,63.7,53.7,30.09,SE,126,2.0,3.0,70,0.00,,,0.00,Wunderground v.1.15,2013-08-05 14:13:00,
2013-08-05 10:19:00,63.7,54.1,30.09,SE,126,2.0,2.0,71,0.00,,,0.00,Wunderground v.1.15,2013-08-05 14:19:00,
2013-08-05 10:24:00,63.6,53.2,30.09,SE,125,2.0,3.0,69,0.00,,,0.00,Wunderground v.1.15,2013-08-05 14:24:00,
2013-08-05 10:29:00,63.6,53.6,30.09,ESE,117,2.0,2.0,70,0.00,,,0.00,Wunderground v.1.15,2013-08-05 14:29:00,
2013-08-05 10:34:00,63.6,53.2,30.09,ESE,117,1.0,3.0,69,0.00,,,0.00,Wunderground v.1.15,2013-08-05 14:34:00,
2013-08-05 10:39:00,63.5,53.9,30.09,ESE,117,2.0,3.0,71,0.00,,,0.00,Wunderground v.1.15,2013-08-05 14:39:00,
2013-08-05 10:44:00,63.5,54.3,30.09,ESE,116,2.0,4.0,72,0.00,,,0.00,Wunderground v.1.15,2013-08-05 14:44:00,
2013-08-05 10:49:00,63.4,53.8,30.09,ESE,115,3.0,3.0,71,0.00,,,0.00,Wunderground v.1.15,2013-08-05 14:49:00,
2013-08-05 10:54:00,63.4,53.8,30.09,ESE,115,2.0,3.0,71,0.00,,,0.00,Wunderground v.1.15,2013-08-05 14:54:00,
2013-08-05 10:59:00,63.5,54.7,30.09,ESE,115,2.0,2.0,73,0.00,,,0.00,Wunderground v.1.15,2013-08-05 14:59:00,
2013-08-05 11:04:00,63.7,54.9,30.09,ESE,116,2.0,4.0,73,0.00,,,0.00,Wunderground v.1.15,2013-08-05 15:04:00,
2013-08-05 11:09:00,63.9,55.4,30.08,ESE,115,2.0,3.0,74,0.00,,,0.00,Wunderground v.1.15,2013-08-05 15:09:00,
2013-08-05 11:14:00,64.0,55.2,30.08,ESE,115,2.0,3.0,73,0.00,,,0.00,Wunderground v.1.15,2013-08-05 15:14:00,
2013-08-05 11:19:00,64.1,55.3,30.08,ESE,115,3.0,4.0,73,0.00,,,0.00,Wunderground v.1.15,2013-08-05 15:19:00,
2013-08-05 11:24:00,64.3,55.5,30.07,ESE,115,1.0,4.0,73,0.00,,,0.00,Wunderground v.1.15,2013-08-05 15:24:00,
2013-08-05 11:30:00,64.5,55.3,30.07,ESE,115,3.0,3.0,72,0.00,,,0.00,Wunderground v.1.15,2013-08-05 15:30:00,
2013-08-05 11:35:00,64.8,55.9,30.06,ESE,115,2.0,3.0,73,0.00,,,0.00,Wunderground v.1.15,2013-08-05 15:35:00,
2013-08-05 11:40:00,65.1,56.2,30.06,ESE,115,1.0,3.0,73,0.00,,,0.00,Wunderground v.1.15,2013-08-05 15:40:00,
2013-08-05 11:45:00,65.6,56.7,30.06,ESE,115,0.0,3.0,73,0.00,,,0.00,Wunderground v.1.15,2013-08-05 15:45:00,
2013-08-05 11:50:00,65.8,56.1,30.06,ESE,115,3.0,3.0,71,0.00,,,0.00,Wunderground v.1.15,2013-08-05 15:50:00,
2013-08-05 11:56:00,65.9,57.0,30.06,ESE,115,1.0,3.0,73,0.00,,,0.00,Wunderground v.1.15,2013-08-05 15:56:00,
2013-08-05 12:01:00,65.8,56.9,30.05,ESE,115,1.0,3.0,73,0.00,,,0.00,Wunderground v.1.15,2013-08-05 16:01:00,
2013-08-05 12:06:00,66.1,56.4,30.05,ESE,115,2.0,3.0,71,0.00,,,0.00,Wunderground v.1.15,2013-08-05 16:06:00,
2013-08-05 12:11:00,66.3,57.0,30.04,ESE,115,0.0,2.0,72,0.00,,,0.00,Wunderground v.1.15,2013-08-05 16:11:00,
2013-08-05 12:16:00,66.7,57.8,30.03,ESE,115,0.0,3.0,73,0.00,,,0.00,Wunderground v.1.15,2013-08-05 16:16:00,
2013-08-05 12:21:00,67.1,57.8,30.03,ESE,115,0.0,3.0,72,0.00,,,0.00,Wunderground v.1.15,2013-08-05 16:21:00,
2013-08-05 12:26:00,67.4,57.7,30.03,ESE,123,0.0,3.0,71,0.00,,,0.00,Wunderground v.1.15,2013-08-05 16:26:00,
2013-08-05 12:31:00,67.7,59.1,30.02,ESE,121,0.0,3.0,74,0.00,,,0.00,Wunderground v.1.15,2013-08-05 16:31:00,
2013-08-05 12:36:00,68.9,59.5,30.02,ESE,121,2.0,3.0,72,0.00,,,0.00,Wunderground v.1.15,2013-08-05 16:36:00,
2013-08-05 12:41:00,68.8,57.8,30.02,ESE,118,2.0,4.0,68,0.00,,,0.00,Wunderground v.1.15,2013-08-05 16:41:00,
2013-08-05 12:46:00,69.5,58.5,30.02,ESE,118,1.0,4.0,68,0.00,,,0.00,Wunderground v.1.15,2013-08-05 16:46:00,
2013-08-05 12:51:00,69.8,59.2,30.01,ESE,118,2.0,2.0,69,0.00,,,0.00,Wunderground v.1.15,2013-08-05 16:51:00,
2013-08-05 12:57:00,69.9,58.4,30.01,SE,138,2.0,4.0,67,0.00,,,0.00,Wunderground v.1.15,2013-08-05 16:57:00,
2013-08-05 13:02:00,69.9,59.7,30.01,SE,137,1.0,2.0,70,0.00,,,0.00,Wunderground v.1.15,2013-08-05 17:02:00,
2013-08-05 13:07:00,69.7,59.1,30.01,SSE,152,1.0,4.0,69,0.00,,,0.00,Wunderground v.1.15,2013-08-05 17:07:00,
2013-08-05 13:11:00,70.1,60.3,30.03,SSE,152,0.0,2.0,71,0.00,,,0.00,Wunderground v.1.15,2013-08-05 17:11:00,
2013-08-05 13:16:00,70.1,59.0,30.01,SSE,151,1.0,3.0,68,0.00,,,0.00,Wunderground v.1.15,2013-08-05 17:16:00,
2013-08-05 13:22:00,70.4,60.9,30.01,SSE,151,0.0,2.0,72,0.00,,,0.00,Wunderground v.1.15,2013-08-05 17:22:00,
2013-08-05 13:27:00,70.1,59.9,30.01,SSE,151,2.0,2.0,70,0.00,,,0.00,Wunderground v.1.15,2013-08-05 17:27:00,
2013-08-05 13:32:00,69.9,61.6,30.02,SSE,151,0.0,1.0,75,0.00,,,0.00,Wunderground v.1.15,2013-08-05 17:32:00,
2013-08-05 13:37:00,70.0,60.6,30.01,West,280,2.0,2.0,72,0.00,,,0.00,Wunderground v.1.15,2013-08-05 17:37:00,
2013-08-05 13:42:00,70.4,61.3,30.01,West,280,0.0,1.0,73,0.00,,,0.00,Wunderground v.1.15,2013-08-05 17:42:00,
2013-08-05 13:47:00,71.1,63.1,30.01,West,280,0.0,1.0,76,0.00,,,0.00,Wunderground v.1.15,2013-08-05 17:47:00,
2013-08-05 13:52:00,71.7,63.0,30.01,South,176,0.0,2.0,74,0.00,,,0.00,Wunderground v.1.15,2013-08-05 17:52:00,
2013-08-05 13:57:00,72.6,63.4,30.00,South,175,0.0,2.0,73,0.00,,,0.00,Wunderground v.1.15,2013-08-05 17:57:00,
2013-08-05 14:02:00,72.7,61.9,30.01,South,174,0.0,2.0,69,0.00,,,0.00,Wunderground v.1.15,2013-08-05 18:02:00,
2013-08-05 14:07:00,72.2,63.8,30.01,South,174,0.0,2.0,75,0.00,,,0.00,Wunderground v.1.15,2013-08-05 18:07:00,
2013-08-05 14:12:00,72.0,63.6,30.01,South,174,0.0,2.0,75,0.00,,,0.00,Wunderground v.1.15,2013-08-05 18:12:00,
2013-08-05 14:17:00,71.9,63.5,30.01,WSW,252,0.0,2.0,75,0.00,,,0.00,Wunderground v.1.15,2013-08-05 18:17:00,
2013-08-05 14:23:00,72.0,63.6,30.00,WSW,250,0.0,1.0,75,0.00,,,0.00,Wunderground v.1.15,2013-08-05 18:23:00,
2013-08-05 14:28:00,72.3,63.5,30.00,SSE,161,0.0,2.0,74,0.00,,,0.00,Wunderground v.1.15,2013-08-05 18:28:00,
2013-08-05 14:33:00,72.3,64.3,30.00,WSW,254,0.0,2.0,76,0.00,,,0.00,Wunderground v.1.15,2013-08-05 18:33:00,
2013-08-05 14:38:00,72.7,64.3,30.00,WSW,252,0.0,2.0,75,0.00,,,0.00,Wunderground v.1.15,2013-08-05 18:38:00,
2013-08-05 14:43:00,73.1,64.3,30.00,West,265,0.0,2.0,74,0.00,,,0.00,Wunderground v.1.15,2013-08-05 18:43:00,
2013-08-05 14:48:00,73.0,64.6,30.00,WSW,257,0.0,2.0,75,0.00,,,0.00,Wunderground v.1.15,2013-08-05 18:48:00,
2013-08-05 14:53:00,73.4,64.6,30.00,WSW,257,0.0,3.0,74,0.00,,,0.00,Wunderground v.1.15,2013-08-05 18:53:00,
2013-08-05 14:58:00,73.4,65.0,30.00,WSW,257,1.0,1.0,75,0.00,,,0.00,Wunderground v.1.15,2013-08-05 18:58:00,
2013-08-05 15:03:00,73.3,64.5,30.00,WSW,257,0.0,2.0,74,0.00,,,0.00,Wunderground v.1.15,2013-08-05 19:03:00,
2013-08-05 15:08:00,73.7,66.8,30.00,West,260,0.0,0.0,79,0.00,,,0.00,Wunderground v.1.15,2013-08-05 19:08:00,
2013-08-05 15:13:00,73.5,65.8,30.01,NNW,339,0.0,3.0,77,0.00,,,0.00,Wunderground v.1.15,2013-08-05 19:13:00,
2013-08-05 15:18:00,74.0,65.2,30.00,WNW,296,0.0,1.0,74,0.00,,,0.00,Wunderground v.1.15,2013-08-05 19:18:00,
2013-08-05 15:24:00,73.9,64.7,30.00,WNW,282,1.0,1.0,73,0.00,,,0.00,Wunderground v.1.15,2013-08-05 19:24:00,
2013-08-05 15:29:00,73.5,64.3,29.99,West,277,1.0,1.0,73,0.00,,,0.00,Wunderground v.1.15,2013-08-05 19:29:00,
2013-08-05 15:34:00,73.0,64.2,29.99,SW,232,1.0,4.0,74,0.00,,,0.00,Wunderground v.1.15,2013-08-05 19:34:00,
2013-08-05 15:39:00,73.5,65.1,29.99,WNW,282,0.0,1.0,75,0.00,,,0.00,Wunderground v.1.15,2013-08-05 19:39:00,
2013-08-05 15:44:00,73.7,65.3,29.99,SW,227,0.0,3.0,75,0.00,,,0.00,Wunderground v.1.15,2013-08-05 19:44:00,
2013-08-05 15:49:00,74.0,64.8,29.99,SW,227,1.0,1.0,73,0.00,,,0.00,Wunderground v.1.15,2013-08-05 19:49:00,
2013-08-05 15:54:00,73.7,64.5,29.99,NW,325,2.0,4.0,73,0.00,,,0.00,Wunderground v.1.15,2013-08-05 19:54:00,
2013-08-05 15:59:00,73.4,66.1,29.99,NW,320,0.0,2.0,78,0.00,,,0.00,Wunderground v.1.15,2013-08-05 19:59:00,
2013-08-05 16:04:00,72.8,66.3,29.99,NW,308,3.0,4.0,80,0.00,,,0.00,Wunderground v.1.15,2013-08-05 20:04:00,
2013-08-05 16:09:00,71.9,66.8,29.99,NW,315,1.0,1.0,84,0.00,,,0.00,Wunderground v.1.15,2013-08-05 20:09:00,
2013-08-05 16:14:00,71.7,66.3,29.99,NW,315,0.0,1.0,83,0.00,,,0.00,Wunderground v.1.15,2013-08-05 20:14:00,
2013-08-05 16:19:00,71.6,66.5,29.99,NW,315,0.0,0.0,84,0.00,,,0.00,Wunderground v.1.15,2013-08-05 20:19:00,
2013-08-05 16:24:00,71.6,66.2,29.98,NW,315,0.0,1.0,83,0.00,,,0.00,Wunderground v.1.15,2013-08-05 20:24:00,
2013-08-05 16:29:00,71.4,66.0,29.99,NW,313,0.0,1.0,83,0.00,,,0.00,Wunderground v.1.15,2013-08-05 20:29:00,
2013-08-05 16:34:00,71.4,66.7,29.99,NW,313,0.0,2.0,85,0.00,,,0.00,Wunderground v.1.15,2013-08-05 20:34:00,
2013-08-05 16:39:00,72.3,66.8,29.98,NW,313,1.0,3.0,83,0.00,,,0.00,Wunderground v.1.15,2013-08-05 20:39:00,
2013-08-05 16:44:00,71.9,67.1,29.98,NW,313,1.0,3.0,85,0.00,,,0.00,Wunderground v.1.15,2013-08-05 20:44:00,
2013-08-05 16:49:00,71.5,66.8,29.98,NW,313,1.0,3.0,85,0.00,,,0.00,Wunderground v.1.15,2013-08-05 20:49:00,
2013-08-05 16:54:00,71.8,66.7,29.98,NW,313,3.0,3.0,84,0.00,,,0.00,Wunderground v.1.15,2013-08-05 20:54:00,
2013-08-05 16:59:00,72.2,67.1,29.98,NW,313,2.0,2.0,84,0.00,,,0.00,Wunderground v.1.15,2013-08-05 20:59:00,
2013-08-05 17:04:00,72.6,66.8,29.99,NW,320,2.0,4.0,82,0.00,,,0.00,Wunderground v.1.15,2013-08-05 21:04:00,
2013-08-05 17:09:00,72.6,67.1,29.98,NW,321,0.0,1.0,83,0.00,,,0.00,Wunderground v.1.15,2013-08-05 21:09:00,
2013-08-05 17:15:00,73.8,67.6,29.98,NW,321,0.0,2.0,81,0.00,,,0.00,Wunderground v.1.15,2013-08-05 21:15:00,
2013-08-05 17:20:00,73.0,66.8,29.98,NW,321,0.0,0.0,81,0.00,,,0.00,Wunderground v.1.15,2013-08-05 21:20:00,
2013-08-05 17:25:00,73.1,67.3,29.98,NW,321,0.0,1.0,82,0.00,,,0.00,Wunderground v.1.15,2013-08-05 21:25:00,
2013-08-05 17:30:00,72.4,66.2,29.98,NW,319,0.0,0.0,81,0.00,,,0.00,Wunderground v.1.15,2013-08-05 21:30:00,
2013-08-05 17:35:00,72.2,66.4,29.98,NW,314,0.0,2.0,82,0.00,,,0.00,Wunderground v.1.15,2013-08-05 21:35:00,
2013-08-05 17:40:00,71.9,65.8,29.97,NW,314,0.0,2.0,81,0.00,,,0.00,Wunderground v.1.15,2013-08-05 21:40:00,
2013-08-05 17:45:00,71.3,65.5,29.97,NW,314,0.0,2.0,82,0.00,,,0.00,Wunderground v.1.15,2013-08-05 21:45:00,
2013-08-05 17:50:00,70.7,65.6,29.97,NW,314,0.0,0.0,84,0.00,,,0.00,Wunderground v.1.15,2013-08-05 21:50:00,
2013-08-05 17:55:00,70.7,65.6,29.97,NW,314,0.0,2.0,84,0.00,,,0.00,Wunderground v.1.15,2013-08-05 21:55:00,
2013-08-05 18:01:00,70.7,65.3,29.97,NW,314,0.0,1.0,83,0.00,,,0.00,Wunderground v.1.15,2013-08-05 22:01:00,
2013-08-05 18:06:00,70.9,65.8,29.97,NW,314,0.0,1.0,84,0.00,,,0.00,Wunderground v.1.15,2013-08-05 22:06:00,
2013-08-05 18:11:00,71.0,65.2,29.96,NW,314,0.0,0.0,82,0.00,,,0.00,Wunderground v.1.15,2013-08-05 22:11:00,
2013-08-05 18:16:00,70.8,65.0,29.97,NW,314,0.0,0.0,82,0.00,,,0.00,Wunderground v.1.15,2013-08-05 22:16:00,
2013-08-05 18:21:00,70.6,64.8,29.96,NW,314,0.0,0.0,82,0.00,,,0.00,Wunderground v.1.15,2013-08-05 22:21:00,
2013-08-05 18:26:00,70.3,64.5,29.96,NW,314,0.0,1.0,82,0.00,,,0.00,Wunderground v.1.15,2013-08-05 22:26:00,
2013-08-05 18:31:00,70.3,65.2,29.96,NW,314,0.0,0.0,84,0.00,,,0.00,Wunderground v.1.15,2013-08-05 22:31:00,
2013-08-05 18:36:00,70.6,65.5,29.95,NW,314,0.0,0.0,84,0.00,,,0.00,Wunderground v.1.15,2013-08-05 22:36:00,
2013-08-05 18:41:00,70.8,65.7,29.95,NW,314,0.0,0.0,84,0.00,,,0.00,Wunderground v.1.15,2013-08-05 22:41:00,
2013-08-05 18:47:00,71.1,64.6,29.95,NW,314,0.0,1.0,80,0.00,,,0.00,Wunderground v.1.15,2013-08-05 22:47:00,
2013-08-05 18:52:00,71.2,65.1,29.95,NW,314,0.0,0.0,81,0.00,,,0.00,Wunderground v.1.15,2013-08-05 22:52:00,
2013-08-05 18:57:00,71.2,64.0,29.95,NW,314,0.0,1.0,78,0.00,,,0.00,Wunderground v.1.15,2013-08-05 22:57:00,
2013-08-05 19:02:00,71.2,64.7,29.95,ENE,76,0.0,2.0,80,0.00,,,0.00,Wunderground v.1.15,2013-08-05 23:02:00,
2013-08-05 19:07:00,71.2,64.4,29.95,ENE,76,0.0,2.0,79,0.00,,,0.00,Wunderground v.1.15,2013-08-05 23:07:00,
2013-08-05 19:12:00,71.1,64.3,29.94,ENE,76,0.0,0.0,79,0.00,,,0.00,Wunderground v.1.15,2013-08-05 23:12:00,
2013-08-05 19:18:00,71.0,63.8,29.94,ENE,76,0.0,0.0,78,0.00,,,0.00,Wunderground v.1.15,2013-08-05 23:18:00,
2013-08-05 19:23:00,71.0,63.8,29.94,ENE,76,0.0,1.0,78,0.00,,,0.00,Wunderground v.1.15,2013-08-05 23:23:00,
2013-08-05 19:28:00,70.9,63.3,29.94,ENE,76,0.0,1.0,77,0.00,,,0.00,Wunderground v.1.15,2013-08-05 23:28:00,
2013-08-05 19:33:00,70.7,63.5,29.94,ENE,76,0.0,0.0,78,0.00,,,0.00,Wunderground v.1.15,2013-08-05 23:33:00,
2013-08-05 19:38:00,70.6,63.8,29.94,ENE,76,0.0,0.0,79,0.00,,,0.00,Wunderground v.1.15,2013-08-05 23:38:00,
2013-08-05 19:43:00,70.5,63.3,29.94,ENE,76,0.0,0.0,78,0.00,,,0.00,Wunderground v.1.15,2013-08-05 23:43:00,
2013-08-05 19:48:00,70.3,63.8,29.94,SW,225,4.0,4.0,80,0.00,,,0.00,Wunderground v.1.15,2013-08-05 23:48:00,
2013-08-05 19:53:00,69.7,65.0,29.94,SW,229,0.0,4.0,85,0.00,,,0.00,Wunderground v.1.15,2013-08-05 23:53:00,
2013-08-05 19:59:00,69.3,63.6,29.94,SW,228,0.0,2.0,82,0.00,,,0.00,Wunderground v.1.15,2013-08-05 23:59:00,
2013-08-05 20:04:00,69.2,63.1,29.94,NNE,25,1.0,3.0,81,0.00,,,0.00,Wunderground v.1.15,2013-08-06 00:04:00,
2013-08-05 20:09:00,69.2,62.8,29.93,NNW,331,0.0,1.0,80,0.00,,,0.00,Wunderground v.1.15,2013-08-06 00:09:00,
2013-08-05 20:14:00,69.1,62.7,29.93,NNW,330,0.0,2.0,80,0.00,,,0.00,Wunderground v.1.15,2013-08-06 00:14:00,
2013-08-05 20:19:00,68.9,62.5,29.93,NNW,330,0.0,0.0,80,0.00,,,0.00,Wunderground v.1.15,2013-08-06 00:19:00,
2013-08-05 20:24:00,69.0,62.2,29.93,South,175,0.0,1.0,79,0.00,,,0.00,Wunderground v.1.15,2013-08-06 00:24:00,
2013-08-05 20:29:00,68.9,62.1,29.93,South,175,0.0,0.0,79,0.00,,,0.00,Wunderground v.1.15,2013-08-06 00:29:00,
2013-08-05 20:34:00,68.8,62.0,29.93,WSW,241,0.0,1.0,79,0.00,,,0.00,Wunderground v.1.15,2013-08-06 00:34:00,
2013-08-05 20:39:00,68.8,62.0,29.93,WSW,241,0.0,0.0,79,0.00,,,0.00,Wunderground v.1.15,2013-08-06 00:39:00,
2013-08-05 20:44:00,68.8,61.7,29.93,WSW,241,0.0,0.0,78,0.00,,,0.00,Wunderground v.1.15,2013-08-06 00:44:00,
2013-08-05 20:49:00,68.8,62.0,29.93,WSW,241,0.0,0.0,79,0.00,,,0.00,Wunderground v.1.15,2013-08-06 00:49:00,
2013-08-05 20:54:00,68.7,61.9,29.93,WSW,241,0.0,0.0,79,0.00,,,0.00,Wunderground v.1.15,2013-08-06 00:54:00,
2013-08-05 20:59:00,68.6,62.2,29.93,WSW,241,0.0,0.0,80,0.00,,,0.00,Wunderground v.1.15,2013-08-06 00:59:00,
2013-08-05 21:04:00,68.6,62.2,29.93,WSW,241,0.0,0.0,80,0.00,,,0.00,Wunderground v.1.15,2013-08-06 01:04:00,
2013-08-05 21:09:00,68.6,62.2,29.93,WSW,241,0.0,0.0,80,0.00,,,0.00,Wunderground v.1.15,2013-08-06 01:09:00,
2013-08-05 21:14:00,68.6,61.8,29.93,WSW,241,0.0,2.0,79,0.00,,,0.00,Wunderground v.1.15,2013-08-06 01:14:00,
2013-08-05 21:19:00,68.5,61.4,29.93,WSW,241,0.0,0.0,78,0.00,,,0.00,Wunderground v.1.15,2013-08-06 01:19:00,
2013-08-05 21:24:00,68.5,61.4,29.93,WSW,241,0.0,1.0,78,0.00,,,0.00,Wunderground v.1.15,2013-08-06 01:24:00,
2013-08-05 21:29:00,68.5,61.4,29.93,WSW,241,0.0,0.0,78,0.00,,,0.00,Wunderground v.1.15,2013-08-06 01:29:00,
2013-08-05 21:34:00,68.4,61.3,29.93,WSW,241,0.0,1.0,78,0.00,,,0.00,Wunderground v.1.15,2013-08-06 01:34:00,
2013-08-05 21:40:00,68.4,60.9,29.93,ESE,103,1.0,2.0,77,0.00,,,0.00,Wunderground v.1.15,2013-08-06 01:40:00,
2013-08-05 21:45:00,68.4,60.9,29.93,ESE,103,0.0,2.0,77,0.00,,,0.00,Wunderground v.1.15,2013-08-06 01:45:00,
2013-08-05 21:50:00,68.3,61.2,29.93,ESE,103,0.0,2.0,78,0.00,,,0.00,Wunderground v.1.15,2013-08-06 01:50:00,
2013-08-05 21:55:00,68.3,61.2,29.93,ESE,103,0.0,2.0,78,0.00,,,0.00,Wunderground v.1.15,2013-08-06 01:55:00,
2013-08-05 22:00:00,68.1,61.0,29.93,ESE,103,1.0,1.0,78,0.00,,,0.00,Wunderground v.1.15,2013-08-06 02:00:00,
2013-08-05 22:06:00,68.1,61.0,29.93,ESE,103,0.0,2.0,78,0.00,,,0.00,Wunderground v.1.15,2013-08-06 02:06:00,
2013-08-05 22:11:00,68.1,61.0,29.93,ESE,103,1.0,2.0,78,0.00,,,0.00,Wunderground v.1.15,2013-08-06 02:11:00,
2013-08-05 22:16:00,68.0,60.9,29.93,ESE,103,2.0,2.0,78,0.00,,,0.00,Wunderground v.1.15,2013-08-06 02:16:00,
2013-08-05 22:21:00,68.0,60.5,29.93,ESE,112,2.0,3.0,77,0.00,,,0.00,Wunderground v.1.15,2013-08-06 02:21:00,
2013-08-05 22:26:00,68.0,60.5,29.93,ESE,114,1.0,3.0,77,0.00,,,0.00,Wunderground v.1.15,2013-08-06 02:26:00,
2013-08-05 22:31:00,67.9,60.4,29.92,ESE,115,1.0,3.0,77,0.00,,,0.00,Wunderground v.1.15,2013-08-06 02:31:00,
2013-08-05 22:36:00,67.9,60.4,29.92,ESE,115,0.0,3.0,77,0.00,,,0.00,Wunderground v.1.15,2013-08-06 02:36:00,
2013-08-05 22:41:00,67.8,60.3,29.92,ESE,115,0.0,2.0,77,0.00,,,0.00,Wunderground v.1.15,2013-08-06 02:41:00,
2013-08-05 22:46:00,67.7,60.2,29.92,ESE,115,1.0,2.0,77,0.00,,,0.00,Wunderground v.1.15,2013-08-06 02:46:00,
2013-08-05 22:51:00,67.7,60.2,29.92,ESE,115,0.0,2.0,77,0.00,,,0.00,Wunderground v.1.15,2013-08-06 02:51:00,
2013-08-05 22:57:00,67.6,60.5,29.92,ESE,115,2.0,3.0,78,0.00,,,0.00,Wunderground v.1.15,2013-08-06 02:57:00,
2013-08-05 23:02:00,67.6,60.5,29.92,ESE,115,1.0,3.0,78,0.00,,,0.00,Wunderground v.1.15,2013-08-06 03:02:00,
2013-08-05 23:07:00,67.5,60.4,29.92,ESE,115,1.0,3.0,78,0.00,,,0.00,Wunderground v.1.15,2013-08-06 03:07:00,
2013-08-05 23:12:00,67.5,60.4,29.92,ESE,115,2.0,2.0,78,0.00,,,0.00,Wunderground v.1.15,2013-08-06 03:12:00,
2013-08-05 23:17:00,67.5,60.4,29.92,ESE,115,1.0,2.0,78,0.00,,,0.00,Wunderground v.1.15,2013-08-06 03:17:00,
2013-08-05 23:22:00,67.4,60.7,29.93,ESE,115,0.0,2.0,79,0.00,,,0.00,Wunderground v.1.15,2013-08-06 03:22:00,
2013-08-05 23:27:00,67.3,60.6,29.93,ESE,115,1.0,2.0,79,0.00,,,0.00,Wunderground v.1.15,2013-08-06 03:27:00,
2013-08-05 23:32:00,67.3,60.6,29.93,ESE,104,1.0,2.0,79,0.00,,,0.00,Wunderground v.1.15,2013-08-06 03:32:00,
2013-08-05 23:37:00,67.3,60.6,29.92,SE,134,2.0,4.0,79,0.00,,,0.00,Wunderground v.1.15,2013-08-06 03:37:00,
2013-08-05 23:42:00,67.3,60.6,29.93,SE,128,0.0,3.0,79,0.00,,,0.00,Wunderground v.1.15,2013-08-06 03:42:00,
2013-08-05 23:47:00,67.2,60.5,29.92,SE,126,3.0,3.0,79,0.00,,,0.00,Wunderground v.1.15,2013-08-06 03:47:00,
2013-08-05 23:52:00,67.1,60.4,29.92,SSE,153,1.0,3.0,79,0.00,,,0.00,Wunderground v.1.15,2013-08-06 03:52:00,
2013-08-05 23:53:00,67.1,60.4,29.92,SSE,153,0.0,3.0,79,0.00,,,0.00,Wunderground v.1.15,2013-08-06 03:53:00,
2013-08-05 23:58:00,67.1,60.4,29.92,SE,124,1.0,4.0,79,0.00,,,0.00,Wunderground v.1.15,2013-08-06 03:58:00,